User: anonymous   Login
Location: Hale Hill Observatory
(39.3806°N, 86.8431°W)
Time: 04:46:25
(UTC-04:00)
Language:

Cosmos 990 Rocket - Orbit

View from above orbital plane
View from above orbital plane
View from above satellite
View from above satellite

Ground track
Ground track

The orbit data is extracted from the following two-line orbital elements,

1 10677U 78019B   16269.41569625  .00000158  00000-0  58564-4 0  9994
2 10677  74.0368  70.5829 0015774 213.1470 146.8698 14.39978760 24387
Epoch (UTC): 25 September 2016 09:58:36
Eccentricity: 0.0015774
inclination: 74.0368°
perigee height: 747 km
apogee height: 770 km
right ascension of ascending node: 70.5829°
argument of perigee: 213.1470°
revolutions per day: 14.39978760
mean anomaly at epoch: 146.8698°
orbit number at epoch: 2438

The dashed part of the orbit path shows where the satellite is in the earth's shadow,  

DLR